Showing default

GONETS D1 7, 27058

Orbit data source: Space-Track

GONETS D1 7, 27058 is a payload satellite owned by Gonets (CIS) in LEO that was launched on Fri, 28 Dec 2001 UTC via a TSIKLON-3 launch vehicle from the Plesetsk Missile And Space Complex (PKMTR). Payloads include a variety of satellites, spacecraft, and rockets equipped with specific instruments for various scientific and technological missions. These include communications satellites like Starlink; space stations such as the ISS; scientific satellites like the Hubble; Earth observation satellites from companies like Planet Labs, Umbra, and HawkEye 360; GPS; miniature CubeSats for education and research; and military/defense satellites.

Loading next visibility...
GONETS D1 7 details
Identifier
27058, 2001-058D
Orbit
LEO
Last TLE update1 day ago
Origin
Flag of CISGonets (CIS)
ManufacturerNPO PM
MissionNon-operational Civil Communications
Bus & MotorSTRELA-3, Unknown motor
Mass225 kg wet, 225 kg dry
Launch date (UTC)
2001-12-28 (23 years ago)
Launch vehicle
TSIKLON-3
Launch site
Plesetsk Missile And Space Complex (PKMTR)
Object type
Payload
Rocket body
Debris
Shape & HBRCyl + 1 Ant, 7 m
Radar Cross Section1.798 m², Medium (>0.1 m² and < 1m²)

Expand to show TLE details & history

TLE from 1 day ago
0 GONETS D1 7
1 27058U 01058D   25024.75918862  .00000045  00000-0  19280-3 0  9997
2 27058  82.5364 168.0310 0003737  77.7059 282.4450 12.62070909 62858
Epoch: 2025-01-24T18:13Z
Definitive object data (Epoch: 2025-01-24T18:13:13.896Z)
Latitude-0.00005°
Longitude130.40534°
Altitude1,416.51 km
Speed7.153 km/s
True Right ascension11h 12m 07s
True Declination0° 00' 00"
Sunlit
Object was in full shadow at TLE epoch
Visualization TLE readout
Latitude-2.04398°
Longitude129.47825°
Altitude1,416.785 km
Speed7.152 km/s
Apparent Right ascension10h 03m 18s
Apparent Declination-20° 07' 33"
Sunlit
Object is in full shadow
Visualization observer readout
Local Sidereal Time20:17:27
Azimuth303.356° NW
Elevation-59.936°
Doppler factor1
Orbital elements
Apogee altitude1,414.642 km
Perigee altitude1,408.82 km
Semi-major axis7,789.868 km
Eccentricity0.0003737
Inclination82.5364°
RAAN168.031°
Arg. of periapsis77.7059°
True anomaly282.40318°
Mean anomaly282.445°
Eccentric anomaly282.42409°
Mean motion3.15681 °/min
BSTAR0.0001928
Orbital period114.04 mins
Loading maneuver chart data...
Loading historical data...
Loading historical data...
Loading historical data...
Loading historical data...
Loading historical data...
Loading historical data...
Loading historical data...

GONETS D1 7 Visibility forecast

Observer location: undefined°, undefined

Span
Click to sort rows by Start time (UTC) header in descending order
Start Az.
Max El. time (UTC)
Max El. Az.
Max El.
End time (UTC)
End Az.
11 mins2025-01-25 19:34:35.814Z23.212° NE2025-01-25 19:39:35.814Z63.855° ENE20.267°2025-01-25 19:45:35.814Z111.741° ESE
15 mins2025-01-25 21:28:35.814Z348.53° N2025-01-25 21:35:35.814Z273.548° WNW44.203°2025-01-25 21:43:35.814Z182.161° SSW
4 mins2025-01-25 23:27:35.814Z296.884° NW2025-01-25 23:29:35.814Z281.825° WNW12.43°2025-01-25 23:31:35.814Z267.099° W
9 mins2025-01-26 08:25:35.814Z111.457° ESE2025-01-26 08:29:35.814Z76.923° E19.472°2025-01-26 08:34:35.814Z38.193° NE
15 mins2025-01-26 10:16:35.814Z194.287° SSW2025-01-26 10:23:35.814Z295.531° NW44.039°2025-01-26 10:31:35.814Z4.709° NNE
6 mins2025-01-26 12:17:35.814Z281.967° WNW2025-01-26 12:19:35.814Z297.32° NW13.682°2025-01-26 12:23:35.814Z327.167° NNW
|